Time,TemperatureF,DewpointF,PressureIn,WindDirection,WindDirectionDegrees,WindSpeedMPH,WindSpeedGustMPH,Humidity,HourlyPrecipIn,Conditions,Clouds,dailyrainin,SolarRadiationWatts/m^2,SoftwareType,DateUTC
2013-01-27 00:21:00,39.0,22.0,-100.00,East,83,5.0,10.0,50,0.00,,,0.00,0.000000,,2013-01-27 07:21:00,
2013-01-27 00:31:00,39.0,22.0,-100.00,East,83,5.0,10.0,50,0.00,,,0.00,0.000000,,2013-01-27 07:31:00,
2013-01-27 00:41:00,39.0,22.0,-100.00,East,83,5.0,10.0,50,0.00,,,0.00,0.000000,,2013-01-27 07:41:00,
2013-01-27 00:51:00,39.0,22.0,-100.00,East,83,5.0,10.0,50,0.00,,,0.00,0.000000,,2013-01-27 07:51:00,
2013-01-27 01:22:00,40.0,21.0,-100.00,NE,37,3.0,9.0,47,0.00,,,0.00,0.000000,,2013-01-27 08:22:00,
2013-01-27 01:32:00,40.0,21.0,-100.00,NE,37,3.0,9.0,47,0.00,,,0.00,0.000000,,2013-01-27 08:32:00,
2013-01-27 01:42:00,40.0,21.0,-100.00,NE,37,3.0,9.0,47,0.00,,,0.00,0.000000,,2013-01-27 08:42:00,
2013-01-27 01:52:00,40.0,21.0,-100.00,NE,37,3.0,9.0,47,0.00,,,0.00,0.000000,,2013-01-27 08:52:00,
2013-01-27 02:21:00,41.0,20.0,-100.00,ENE,77,4.0,11.0,43,0.00,,,0.00,0.000000,,2013-01-27 09:21:00,
2013-01-27 02:32:00,41.0,20.0,-100.00,ENE,77,4.0,11.0,43,0.00,,,0.00,0.000000,,2013-01-27 09:32:00,
2013-01-27 02:41:00,41.0,20.0,-100.00,ENE,77,4.0,11.0,43,0.00,,,0.00,0.000000,,2013-01-27 09:41:00,
2013-01-27 02:51:00,41.0,20.0,-100.00,ENE,77,4.0,11.0,43,0.00,,,0.00,0.000000,,2013-01-27 09:51:00,
2013-01-27 03:21:00,42.0,22.0,-100.00,NNE,21,2.0,10.0,44,0.00,,,0.00,0.000000,,2013-01-27 10:21:00,
2013-01-27 03:32:00,42.0,22.0,-100.00,NNE,21,2.0,10.0,44,0.00,,,0.00,0.000000,,2013-01-27 10:32:00,
2013-01-27 03:42:00,42.0,22.0,-100.00,NNE,21,2.0,10.0,44,0.00,,,0.00,0.000000,,2013-01-27 10:42:00,
2013-01-27 03:51:00,42.0,22.0,-100.00,NNE,21,2.0,10.0,44,0.00,,,0.00,0.000000,,2013-01-27 10:51:00,
2013-01-27 04:21:00,41.0,22.0,-100.00,South,184,3.0,10.0,46,0.00,,,0.00,0.000000,,2013-01-27 11:21:00,
2013-01-27 04:32:00,41.0,22.0,-100.00,South,184,3.0,10.0,46,0.00,,,0.00,0.000000,,2013-01-27 11:32:00,
2013-01-27 04:42:00,41.0,22.0,-100.00,South,184,3.0,10.0,46,0.00,,,0.00,0.000000,,2013-01-27 11:42:00,
2013-01-27 04:52:00,41.0,22.0,-100.00,South,184,3.0,10.0,46,0.00,,,0.00,0.000000,,2013-01-27 11:52:00,
2013-01-27 05:21:00,43.0,23.0,-100.00,ESE,115,2.0,6.0,44,0.00,,,0.00,0.000000,,2013-01-27 12:21:00,
2013-01-27 05:32:00,43.0,23.0,-100.00,ESE,115,2.0,6.0,44,0.00,,,0.00,0.000000,,2013-01-27 12:32:00,
2013-01-27 05:42:00,43.0,23.0,-100.00,ESE,115,2.0,6.0,44,0.00,,,0.00,0.000000,,2013-01-27 12:42:00,
2013-01-27 05:52:00,43.0,23.0,-100.00,ESE,115,2.0,6.0,44,0.00,,,0.00,0.000000,,2013-01-27 12:52:00,
2013-01-27 06:22:00,39.0,22.0,-100.00,ESE,105,0.0,2.0,50,0.00,,,0.00,0.000000,,2013-01-27 13:22:00,
2013-01-27 06:32:00,39.0,22.0,-100.00,ESE,105,0.0,2.0,50,0.00,,,0.00,0.000000,,2013-01-27 13:32:00,
2013-01-27 06:42:00,39.0,22.0,-100.00,ESE,105,0.0,2.0,50,0.00,,,0.00,0.000000,,2013-01-27 13:42:00,
2013-01-27 06:52:00,39.0,22.0,-100.00,ESE,105,0.0,2.0,50,0.00,,,0.00,0.000000,,2013-01-27 13:52:00,
2013-01-27 07:22:00,41.0,23.0,-100.00,South,189,3.0,5.0,48,0.00,,,0.00,0.000000,,2013-01-27 14:22:00,
2013-01-27 07:32:00,41.0,23.0,-100.00,South,189,3.0,5.0,48,0.00,,,0.00,0.000000,,2013-01-27 14:32:00,
2013-01-27 07:42:00,41.0,23.0,-100.00,South,189,3.0,5.0,48,0.00,,,0.00,0.000000,,2013-01-27 14:42:00,
2013-01-27 07:52:00,41.0,23.0,-100.00,South,189,3.0,5.0,48,0.00,,,0.00,0.000000,,2013-01-27 14:52:00,
2013-01-27 08:22:00,40.0,24.0,-100.00,SW,217,3.0,7.0,52,0.00,,,0.00,10.000000,,2013-01-27 15:22:00,
2013-01-27 08:32:00,40.0,24.0,-100.00,SW,217,3.0,7.0,52,0.00,,,0.00,10.000000,,2013-01-27 15:32:00,
2013-01-27 08:42:00,40.0,24.0,-100.00,SW,217,3.0,7.0,52,0.00,,,0.00,10.000000,,2013-01-27 15:42:00,
2013-01-27 08:52:00,40.0,24.0,-100.00,SW,217,3.0,7.0,52,0.00,,,0.00,10.000000,,2013-01-27 15:52:00,
2013-01-27 09:21:00,41.0,26.0,-100.00,South,173,5.0,7.0,54,0.00,,,0.00,63.000000,,2013-01-27 16:21:00,
2013-01-27 09:32:00,41.0,26.0,-100.00,South,173,5.0,7.0,54,0.00,,,0.00,63.000000,,2013-01-27 16:32:00,
2013-01-27 09:42:00,41.0,26.0,-100.00,South,173,5.0,7.0,54,0.00,,,0.00,63.000000,,2013-01-27 16:42:00,
2013-01-27 09:52:00,41.0,26.0,-100.00,South,173,5.0,7.0,54,0.00,,,0.00,63.000000,,2013-01-27 16:52:00,
2013-01-27 10:22:00,41.0,27.0,-100.00,SSE,167,4.0,11.0,57,0.00,,,0.00,102.000000,,2013-01-27 17:22:00,
2013-01-27 10:32:00,41.0,27.0,-100.00,SSE,167,4.0,11.0,57,0.00,,,0.00,102.000000,,2013-01-27 17:32:00,
2013-01-27 10:42:00,41.0,27.0,-100.00,SSE,167,4.0,11.0,57,0.00,,,0.00,102.000000,,2013-01-27 17:42:00,
2013-01-27 10:52:00,41.0,27.0,-100.00,SSE,167,4.0,11.0,57,0.00,,,0.00,102.000000,,2013-01-27 17:52:00,
2013-01-27 11:22:00,47.0,29.0,-100.00,SSW,202,0.0,6.0,50,0.00,,,0.00,275.000000,,2013-01-27 18:22:00,
2013-01-27 11:32:00,47.0,29.0,-100.00,SSW,202,0.0,6.0,50,0.00,,,0.00,275.000000,,2013-01-27 18:32:00,
2013-01-27 11:42:00,47.0,29.0,-100.00,SSW,202,0.0,6.0,50,0.00,,,0.00,275.000000,,2013-01-27 18:42:00,
2013-01-27 11:52:00,47.0,29.0,-100.00,SSW,202,0.0,6.0,50,0.00,,,0.00,275.000000,,2013-01-27 18:52:00,
2013-01-27 12:22:00,49.0,30.0,-100.00,West,269,7.0,11.0,47,0.00,,,0.00,513.000000,,2013-01-27 19:22:00,
2013-01-27 12:32:00,49.0,30.0,-100.00,West,269,7.0,11.0,47,0.00,,,0.00,513.000000,,2013-01-27 19:32:00,
2013-01-27 12:42:00,49.0,30.0,-100.00,West,269,7.0,11.0,47,0.00,,,0.00,513.000000,,2013-01-27 19:42:00,
2013-01-27 12:52:00,49.0,30.0,-100.00,West,269,7.0,11.0,47,0.00,,,0.00,513.000000,,2013-01-27 19:52:00,
2013-01-27 13:22:00,48.0,29.0,-100.00,West,273,7.0,14.0,48,0.00,,,0.00,544.000000,,2013-01-27 20:22:00,
2013-01-27 13:33:00,48.0,29.0,-100.00,West,273,7.0,14.0,48,0.00,,,0.00,544.000000,,2013-01-27 20:33:00,
2013-01-27 13:42:00,48.0,29.0,-100.00,West,273,7.0,14.0,48,0.00,,,0.00,544.000000,,2013-01-27 20:42:00,
2013-01-27 13:52:00,48.0,29.0,-100.00,West,273,7.0,14.0,48,0.00,,,0.00,544.000000,,2013-01-27 20:52:00,
2013-01-27 14:22:00,46.0,30.0,-100.00,West,266,6.0,15.0,53,0.00,,,0.00,499.000000,,2013-01-27 21:22:00,
2013-01-27 14:33:00,46.0,30.0,-100.00,West,266,6.0,15.0,53,0.00,,,0.00,499.000000,,2013-01-27 21:33:00,
2013-01-27 14:42:00,46.0,30.0,-100.00,West,266,6.0,15.0,53,0.00,,,0.00,499.000000,,2013-01-27 21:42:00,
2013-01-27 14:52:00,46.0,30.0,-100.00,West,266,6.0,15.0,53,0.00,,,0.00,499.000000,,2013-01-27 21:52:00,
2013-01-27 15:22:00,44.0,28.0,-100.00,West,280,7.0,14.0,54,0.00,,,0.00,277.000000,,2013-01-27 22:22:00,
2013-01-27 15:32:00,44.0,28.0,-100.00,West,280,7.0,14.0,54,0.00,,,0.00,277.000000,,2013-01-27 22:32:00,
2013-01-27 15:42:00,44.0,28.0,-100.00,West,280,7.0,14.0,54,0.00,,,0.00,277.000000,,2013-01-27 22:42:00,
2013-01-27 15:52:00,44.0,28.0,-100.00,West,280,7.0,14.0,54,0.00,,,0.00,277.000000,,2013-01-27 22:52:00,
2013-01-27 16:12:00,42.0,30.0,-100.00,NW,322,5.0,16.0,61,0.00,,,0.00,27.000000,,2013-01-27 23:12:00,
2013-01-27 16:22:00,42.0,30.0,-100.00,NW,322,5.0,16.0,61,0.00,,,0.00,27.000000,,2013-01-27 23:22:00,
2013-01-27 16:32:00,42.0,30.0,-100.00,NW,322,5.0,16.0,61,0.00,,,0.00,27.000000,,2013-01-27 23:32:00,
2013-01-27 16:41:00,42.0,30.0,-100.00,NW,322,5.0,16.0,61,0.00,,,0.00,27.000000,,2013-01-27 23:41:00,
2013-01-27 16:52:00,42.0,30.0,-100.00,NW,322,5.0,16.0,61,0.00,,,0.00,27.000000,,2013-01-27 23:52:00,
2013-01-27 17:21:00,34.0,28.0,-100.00,NNW,327,6.0,11.0,78,0.00,,,0.00,17.000000,,2013-01-28 00:21:00,
2013-01-27 17:32:00,34.0,28.0,-100.00,NNW,327,6.0,11.0,78,0.00,,,0.00,17.000000,,2013-01-28 00:32:00,
2013-01-27 17:42:00,34.0,28.0,-100.00,NNW,327,6.0,11.0,78,0.00,,,0.00,17.000000,,2013-01-28 00:42:00,
2013-01-27 17:51:00,34.0,28.0,-100.00,NNW,327,6.0,11.0,78,0.00,,,0.00,17.000000,,2013-01-28 00:51:00,
2013-01-27 18:22:00,32.0,28.0,-100.00,SSE,147,1.0,8.0,85,0.00,,,0.00,1.000000,,2013-01-28 01:22:00,
2013-01-27 18:33:00,32.0,28.0,-100.00,SSE,147,1.0,8.0,85,0.00,,,0.00,1.000000,,2013-01-28 01:33:00,
2013-01-27 18:42:00,32.0,28.0,-100.00,SSE,147,1.0,8.0,85,0.00,,,0.00,1.000000,,2013-01-28 01:42:00,
2013-01-27 18:52:00,32.0,28.0,-100.00,SSE,147,1.0,8.0,85,0.00,,,0.00,1.000000,,2013-01-28 01:52:00,
2013-01-27 19:22:00,31.0,27.0,-100.00,SW,217,1.0,7.0,86,0.00,,,0.00,0.000000,,2013-01-28 02:22:00,
2013-01-27 19:32:00,31.0,27.0,-100.00,SW,217,1.0,7.0,86,0.00,,,0.00,0.000000,,2013-01-28 02:32:00,
2013-01-27 19:42:00,31.0,27.0,-100.00,SW,217,1.0,7.0,86,0.00,,,0.00,0.000000,,2013-01-28 02:42:00,
2013-01-27 19:52:00,31.0,27.0,-100.00,SW,217,1.0,7.0,86,0.00,,,0.00,0.000000,,2013-01-28 02:52:00,
2013-01-27 20:22:00,31.0,28.0,-100.00,SSW,201,5.0,8.0,89,0.00,,,0.00,0.000000,,2013-01-28 03:22:00,
2013-01-27 20:32:00,31.0,28.0,-100.00,SSW,201,5.0,8.0,89,0.00,,,0.00,0.000000,,2013-01-28 03:32:00,
2013-01-27 20:42:00,31.0,28.0,-100.00,SSW,201,5.0,8.0,89,0.00,,,0.00,0.000000,,2013-01-28 03:42:00,
2013-01-27 20:52:00,31.0,28.0,-100.00,SSW,201,5.0,8.0,89,0.00,,,0.00,0.000000,,2013-01-28 03:52:00,
2013-01-27 21:22:00,29.0,27.0,-100.00,South,184,6.0,10.0,93,0.00,,,0.00,0.000000,,2013-01-28 04:22:00,
2013-01-27 21:32:00,29.0,27.0,-100.00,South,184,6.0,10.0,93,0.00,,,0.00,0.000000,,2013-01-28 04:32:00,
2013-01-27 21:42:00,29.0,27.0,-100.00,South,184,6.0,10.0,93,0.00,,,0.00,0.000000,,2013-01-28 04:42:00,
2013-01-27 21:52:00,29.0,27.0,-100.00,South,184,6.0,10.0,93,0.00,,,0.00,0.000000,,2013-01-28 04:52:00,
2013-01-27 22:21:00,28.0,27.0,-100.00,WNW,290,1.0,9.0,95,0.00,,,0.00,0.000000,,2013-01-28 05:21:00,
2013-01-27 22:32:00,28.0,27.0,-100.00,WNW,290,1.0,9.0,95,0.00,,,0.00,0.000000,,2013-01-28 05:32:00,
2013-01-27 22:42:00,28.0,27.0,-100.00,WNW,290,1.0,9.0,95,0.00,,,0.00,0.000000,,2013-01-28 05:42:00,
2013-01-27 22:52:00,28.0,27.0,-100.00,WNW,290,1.0,9.0,95,0.00,,,0.00,0.000000,,2013-01-28 05:52:00,
2013-01-27 23:22:00,29.0,28.0,-100.00,NNW,329,1.0,7.0,96,0.00,,,0.00,0.000000,,2013-01-28 06:22:00,
2013-01-27 23:32:00,29.0,28.0,-100.00,NNW,329,1.0,7.0,96,0.00,,,0.00,0.000000,,2013-01-28 06:32:00,
2013-01-27 23:42:00,29.0,28.0,-100.00,NNW,329,1.0,7.0,96,0.00,,,0.00,0.000000,,2013-01-28 06:42:00,
2013-01-27 23:52:00,29.0,28.0,-100.00,NNW,329,1.0,7.0,96,0.00,,,0.00,0.000000,,2013-01-28 06:52:00,